| time (UTC) | temp F | wind direction | speed knots | gust knots | rain 1hr in | rain 24hr in | rain mn in | humidity % | barometer mb |
| 20260503200035 | 49 | 169 | 0.0 | 0.0 | 0.00 | 0.00 | 0.00 | 73 | 1015.2 |
| 20260503194536 | 50 | 169 | 0.0 | 0.0 | 0.00 | 0.00 | 0.00 | 73 | 1015.1 |
| 20260503193036 | 52 | 169 | 0.0 | 0.0 | 0.00 | 0.00 | 0.00 | 69 | 1015.1 |
| 20260503191534 | 53 | 169 | 0.0 | 0.0 | 0.00 | 0.00 | 0.00 | 61 | 1015.1 |
| 20260503190033 | 53 | 169 | 0.0 | 0.9 | 0.00 | 0.00 | 0.00 | 60 | 1015.2 |
| 20260503184546 | 54 | 169 | 0.0 | 0.9 | 0.00 | 0.00 | 0.00 | 60 | 1015.2 |
| 20260503183032 | 55 | 169 | 0.0 | 2.6 | 0.00 | 0.00 | 0.00 | 58 | 1015.2 |
| 20260503181534 | 56 | 169 | 0.0 | 0.9 | 0.00 | 0.00 | 0.00 | 57 | 1015.1 |
| 20260503180036 | 57 | 169 | 0.0 | 1.7 | 0.00 | 0.00 | 0.00 | 55 | 1015.0 |
| 20260503174533 | 59 | 169 | 0.0 | 0.9 | 0.00 | 0.00 | 0.00 | 54 | 1015.0 |
| 20260503173035 | 60 | 169 | 0.0 | 1.7 | 0.00 | 0.00 | 0.00 | 52 | 1014.9 |
| 20260503171545 | 61 | 169 | 0.0 | 0.0 | 0.00 | 0.00 | 0.00 | 50 | 1015.0 |
| 20260503081508 | 56 | 160 | 1.7 | 4.3 | 0.00 | 0.00 | 0.00 | 47 | 1020.7 |
| 20260503071700 | 55 | 186 | 1.7 | 7.0 | 0.00 | 0.00 | 0.00 | 47 | 1020.9 |
| 20260503054544 | 41 | 347 | 0.0 | 0.9 | 0.00 | 0.00 | 0.00 | 73 | 1021.2 |
| 20260503053037 | 39 | 347 | 0.0 | 0.9 | 0.00 | 0.00 | 0.00 | 75 | 1021.4 |
| 20260503051530 | 38 | 345 | 0.0 | 1.7 | 0.00 | 0.00 | 0.00 | 76 | 1021.2 |
| 20260503050027 | 37 | 342 | 0.0 | 1.7 | 0.00 | 0.00 | 0.00 | 77 | 1021.2 |
| 20260503044541 | 36 | 343 | 0.0 | 0.9 | 0.00 | 0.00 | 0.00 | 77 | 1021.2 |
| 20260503043038 | 35 | 318 | 0.0 | 0.0 | 0.00 | 0.00 | 0.00 | 79 | 1021.2 |
| 20260503041522 | 34 | 312 | 0.0 | 0.0 | 0.00 | 0.00 | 0.00 | 79 | 1021.2 |
| 20260503040021 | 33 | 304 | 0.0 | 1.7 | 0.00 | 0.00 | 0.00 | 79 | 1021.2 |
| 20260503034521 | 32 | 300 | 0.9 | 1.7 | 0.00 | 0.00 | 0.00 | 79 | 1021.1 |
| 20260503033021 | 30 | 245 | 0.9 | 2.6 | 0.00 | 0.00 | 0.00 | 79 | 1021.1 |
| 20260503031526 | 30 | 281 | 0.9 | 2.6 | 0.00 | 0.00 | 0.00 | 80 | 1021.0 |
| 20260503030017 | 30 | 281 | 0.0 | 0.0 | 0.00 | 0.00 | 0.00 | 81 | 1021.0 |
| 20260503024516 | 30 | 281 | 0.0 | 0.0 | 0.00 | 0.00 | 0.00 | 81 | 1020.9 |
| 20260503023015 | 30 | 281 | 0.0 | 0.0 | 0.00 | 0.00 | 0.00 | 81 | 1020.8 |
| 20260503021516 | 30 | 281 | 0.0 | 0.9 | 0.00 | 0.00 | 0.00 | 82 | 1020.9 |
| 20260503020014 | 30 | 281 | 0.0 | 0.0 | 0.00 | 0.00 | 0.00 | 82 | 1020.9 |
| 20260503014514 | 30 | 281 | 0.0 | 0.0 | 0.00 | 0.00 | 0.00 | 81 | 1020.9 |
| 20260503013013 | 30 | 281 | 0.0 | 0.0 | 0.00 | 0.00 | 0.00 | 81 | 1021.0 |
| 20260503011509 | 30 | 281 | 0.0 | 0.0 | 0.00 | 0.00 | 0.00 | 79 | 1021.0 |
| 20260503010008 | 31 | 281 | 0.0 | 0.0 | 0.00 | 0.00 | 0.00 | 79 | 1021.0 |
| 20260503004507 | 31 | 281 | 0.0 | 0.0 | 0.00 | 0.00 | 0.00 | 79 | 1020.9 |
| 20260503003006 | 31 | 281 | 0.0 | 1.7 | 0.00 | 0.00 | 0.00 | 79 | 1020.9 |
| 20260503001503 | 31 | 283 | 0.0 | 1.7 | 0.00 | 0.00 | 0.00 | 79 | 1021.0 |
| 20260503000002 | 32 | 285 | 0.0 | 0.9 | 0.00 | 0.00 | 0.00 | 79 | 1021.1 |
| 20260502234605 | 32 | 285 | 0.0 | 0.0 | 0.00 | 0.00 | 0.00 | 79 | 1021.1 |
| 20260502233100 | 32 | 285 | 0.0 | 0.0 | 0.00 | 0.00 | 0.00 | 79 | 1021.1 |
| 20260502231556 | 32 | 287 | 0.0 | 0.0 | 0.00 | 0.00 | 0.00 | 78 | 1021.2 |
| 20260502230055 | 33 | 288 | 0.0 | 0.0 | 0.00 | 0.00 | 0.00 | 78 | 1021.2 |
| 20260502224552 | 33 | 288 | 0.0 | 0.0 | 0.00 | 0.00 | 0.00 | 79 | 1021.4 |
| 20260502223050 | 33 | 289 | 0.0 | 0.0 | 0.00 | 0.00 | 0.00 | 78 | 1021.5 |
| 20260502221558 | 34 | 291 | 0.0 | 0.9 | 0.00 | 0.00 | 0.00 | 77 | 1021.5 |
| 20260502220057 | 34 | 291 | 0.9 | 2.6 | 0.00 | 0.00 | 0.00 | 75 | 1021.6 |
| 20260502214543 | 34 | 245 | 0.0 | 0.0 | 0.00 | 0.00 | 0.00 | 76 | 1021.6 |
| 20260502213042 | 35 | 292 | 0.0 | 0.0 | 0.00 | 0.00 | 0.00 | 77 | 1021.7 |
| 20260502211540 | 35 | 294 | 0.0 | 0.0 | 0.00 | 0.00 | 0.00 | 77 | 1021.7 |
| 20260502210037 | 36 | 294 | 0.0 | 0.0 | 0.00 | 0.00 | 0.00 | 74 | 1021.7 |
| 20260502204537 | 36 | 294 | 0.0 | 0.0 | 0.00 | 0.00 | 0.00 | 76 | 1021.6 |
| 20260502203032 | 37 | 287 | 0.0 | 1.7 | 0.00 | 0.00 | 0.00 | 74 | 1021.6 |
| 20260502201529 | 38 | 287 | 0.9 | 2.6 | 0.00 | 0.00 | 0.00 | 70 | 1021.6 |